www.pogodaiklimat.ru

Погода и климат >> Архив погоды >> Маршалловы Острова >> Атолл Маджуро


ПОГОДА на Атолле Маджуро

  • Прогноз погоды на Атолле Маджуро
  • Монитор погоды на Атолле Маджуро

АРХИВ ПОГОДЫ на Атолле Маджуро

Время (UTC), дата Ветер
(напр.,м/с)
 
Видим.   Явления Облачность Т
(С)
Тd
(С)
f
(%)
Тe
(С)
Тes
(С)
Комфортность P
(гПа)
Po
(гПа)
Тmin
(С)
Tmax
(С)
R
(мм)
R24
(мм)
S
(см)
12 10.08 В 3 24 км {гроза, дождь} 10/5 300 м
[Cu Sc Ac As Cs]
+28.4 +25.1 82 +41 +41 опасность
перегрева
1009.7 1009.3 +31.8 7
18 10.08 нст 2 24 км 10/5 300 м
[Cu Sc Ac As Cs]
+28.6 +25.0 81 +41 +41 опасность
перегрева
1008.3 1008.0
00 11.08 В 3 24 км в посл. час ливневой дождь 10/5 300 м
[Cu Sc Ac As Cs]
+29.2 +24.3 75 +41 +45 опасность
перегрева
1011.0 1010.7 +26.8 17
06 11.08 Ю 4 24 км {ливн. осадки} 10/6 300 м
[Cu Sc Ac As Cs]
+29.6 +25.0 76 +42 +43 опасность
перегрева
1009.1 1008.8 3
12 11.08 ЮВ 2 24 км 10/4 300 м
[Cu Sc Ac As Cs]
+28.7 +24.0 76 +40 +40 очень
душно
1011.5 1011.2 +31.4
18 11.08 В 2 24 км 6/4 300 м
[Cu Sc Ci fib]
+27.7 +24.5 83 +39 +39 очень
душно
1010.0 1009.7
00 12.08 В 2 24 км в посл. час ливневой дождь 10/6 300 м
[Cu Sc Ac As Ci fib]
+27.7 +24.9 85 +40 +44 очень
душно
1011.5 1011.2 +27.0 4
06 12.08 В 4 24 км {ливн. осадки, дождь} 10/5 300 м
[Cu Sc Ac As Cs]
+26.5 +23.6 84 +36 +36 очень
душно
1010.5 1010.2 2
12 12.08 штиль 0 24 км 10/5 300 м
[Cu Sc Ac As Cs]
+27.3 +23.7 81 +37 +37 очень
душно
1012.5 1012.2 +28.7
18 12.08 штиль 0 24 км 10/5 300 м
[Cu Sc Ac As Cs]
+27.0 +24.0 84 +37 +37 очень
душно
1011.2 1010.8
00 13.08 нст 2 24 км 6/4 300 м
[Cu Sc Ci fib]
+30.3 +24.7 72 +43 +55 опасность
перегрева
1011.5 1011.2 +26.2 2
06 13.08 З 4 24 км в посл. час ливневой дождь 8/5 300 м
[Cu Sc Ci fib]
+26.9 +24.5 87 +38 +38 очень
душно
1010.0 1009.7 1
12 13.08 СЗ 3 24 км {ливн. осадки} 8/5 300 м
[Cu Sc Ci fib]
+27.2 +24.5 85 +38 +38 очень
душно
1012.2 1011.9 +30.4 3
18 13.08 нст 1 24 км 10/5 300 м
[Cu Sc Ac As Cs]
+27.8 +24.2 81 +39 +39 очень
душно
1011.2 1010.8
00 14.08 штиль 0 24 км в посл. час ливневой дождь 10/6 300 м
[Cu Sc Ac As Cs]
+26.8 +24.1 85 +37 +43 очень
душно
1013.2 1012.9 +26.6 6
06 14.08 З 6 24 км {ливн. осадки} 10/6 300 м
[Cu Sc Ac As Ci fib]
+27.6 +24.3 82 +39 +39 очень
душно
1010.7 1010.3 18
12 14.08 З 4 24 км 10/4 300 м
[Cu Sc Ac As Ci fib]
+27.2 +24.2 84 +38 +38 очень
душно
1010.7 1010.3 +28.1
18 14.08 ЮЗ 3 22 км слаб. ливневой дождь 10/6 300 м
[Cu Sc Ac As Ci fib]
+26.6 +24.0 86 +37 +37 очень
душно
1010.5 1010.2 0.0
00 15.08 З 4 24 км 10/4 300 м
[Cu Sc Ci fib]
+29.8 +24.3 72 +42 +48 опасность
перегрева
1010.8 1010.5 +25.6 18
06 15.08 СЗ 3 24 км 6/4 300 м
[Cu Sc Ci sp]
+29.8 +24.2 72 +42 +42 опасность
перегрева
1009.0 1008.6
12 15.08 штиль 0 24 км 8/4 300 м
[Cu Sc Ci fib]
+28.1 +23.5 76 +38 +38 очень
душно
1010.8 1010.5 +30.9
18 15.08 ЮЗ 3 24 км 10/5 300 м
[Cu Sc Ci fib]
+28.3 +24.3 79 +40 +40 очень
душно
1009.3 1009.0
00 16.08 ЮЗ 4 24 км 8/5 300 м
[Cu Sc Ci fib]
+31.2 +25.3 71 +45 +51 опасность
перегрева
1010.2 1009.8 +28.1
06 16.08 З 3 24 км 6/4 300 м
[Cu Sc Ci fib]
+29.9 +24.3 72 +42 +42 опасность
перегрева
1007.6 1007.3
12 16.08 З 2 24 км 5/4 300 м
[Cu Sc Ci fib]
+28.5 +24.3 78 +40 +40 очень
душно
1010.2 1009.8 +31.2
18 16.08 штиль 0 24 км 5/3 300 м
[Cu Sc Ci fib]
+27.1 +24.4 85 +38 +38 очень
душно
1008.8 1008.5
00 17.08 С 3 30 км 4/3 300 м
[Cu hum Ci fib]
+31.1 +25.1 70 +45 +58 опасность
перегрева
1009.8 1009.5 +27.1
06 17.08 ЮВ 3 24 км 10/5 300 м
[Cu Sc Ci fib]
+29.1 +24.3 75 +41 +41 опасность
перегрева
1008.0 1007.6

 

Местоположение метеостанции Атолл Маджуро (Маршалловы Острова): широта 7.08 долгота 171.38 высота над уровнем моря 3 м.

В архиве по умолчанию представлена погода на Атолле Маджуро за последнюю неделю. Архивные данные за месяц целиком и за предыдущие месяцы, начиная с января 2011 года, Вы можете получить, выбрав интересующий диапазон дат из раскрывающегося списка и нажав кнопку "Ввод!".


*Определитесь, кто Вы:
робот инопланетянин человек

Внимание! Время в таблицах - всемирное. Для получения местного времени необходимо прибавить поправку, которая равна 12 ч.

Смотрите также архив погоды в соседних городах и на ближайших метеорологических станциях:

Погода на Атолле Мили (Маршалловы Острова) (118 км)
Погода на Атолле Бутаритари (Кирибати) (476 км)
Погода на Атолле Утирик (Маршалловы Острова) (491 км)
Погода на Атолле Тарава (Кирибати) (660 км)
Погода в Аэропорту Бонрики (Кирибати) (664 км)
Погода на Атолле Косраэ (Микронезия) (951 км)
Погода в Аэропорту Беру (Кирибати) (1069 км)
Погода на Атолле Пингелап (Микронезия) (1184 км)
Погода на Атолле Мокил (Микронезия) (1283 км)
Погода на Острове Понпеи (Микронезия) (1454 км)

Пояснения к столбцам:

Ветер - указаны скорость ветра в м/с - средняя за 10 мин, порывы в срок и между сроками (в фигурных скобках) и направление, откуда дует ветер: С - северный, СВ - северо-восточный, В - восточный, ЮВ - юго-восточный, Ю - южный, ЮЗ - юго-западный, З - западный, СЗ - северо-западный.
Видимость - горизонтальная дальность видимости в метрах или километрах. При видимости от 1 до 10 км при отсутствии осадков обычно наблюдается дымка, при ухудшении видимости до 1 км и менее - туман. В сухую погоду видимость может ухудшаться дымом, пылью или мглою.
Явления - указаны атмосферные явления, наблюдавшиеся в срок или в последний час перед сроком; фигурными скобками обозначены явления, наблюдавшиеся между сроками (за 1-3 часа до срока); квадратными скобками обозначены град или гололедные отложения с указанием их диаметра в мм.
Облачность - указаны через наклонную черту общая и нижняя облачность в баллах и высота нижней границы облаков в метрах; квадратными скобками обозначены формы облаков: Ci - перистые, Cs - перисто-слоистые, Cc - перисто-кучевые, Ac - высококучевые, As - высокослоистые, Sc - слоисто-кучевые, Ns - слоисто-дождевые, Cu - кучевые, Cb - кучево-дождевые. Подробнее классификацию облаков см. в Атласе облаков (PDF).
T - Температура воздуха - температура, измеренная на высоте 2 м над землей.
Td - Температура точки росы - температура, при понижении до которой содержащийся в воздухе водяной пар достигнет насыщения.
f - Относительная влажность воздуха - влажноcть воздуха, измеренная на высоте 2 м над землей.
Te - Эффективная температура - температура, которую ощущает одетый по сезону человек в тени. Характеристика душности погоды. При расчете учитывается влияние влажности воздуха и скорости ветра на теплоощущения человека.
Tes - Эффективная температура на солнце - температура, которую ощущает человек, с поправкой на солнечный нагрев. Характеристика знойности погоды. Зависит от высоты солнца над горизонтом, облачности и скорости ветра. Ночью, в пасмурную погоду, а также при ветре 12 м/с и более поправка равна нулю.
P - Атмосферное давление - приведенное к уровню моря атмосферное давление.
Po - Атмосферное давление - измеренное на уровне метеостанции атмосферное давление.
Tmin - Минимальная температура - минимум температуры воздуха на высоте 2 м над землей.
Tmax - Максимальная температура - максимум температуры воздуха на высоте 2 м над землей.
R - Количество осадков - Количество выпавших осадков за период времени, мм. При наведении курсора мыши на число - период времени, за который выпало указанное количество осадков.
R24 - Количество осадков - Количество выпавших осадков за 24 часа, мм.
S - Снежный покров - Высота снежного покрова, см. При наведении курсора мыши на число - состояние снежного покрова и степень покрытия местности в баллах.